| time (UTC) | temp F | wind direction | speed MPH | gust MPH | rain 1hr in | rain 24hr in | rain mn in | humidity % | barometer mb |
| 20260904224539 | 59 | 165 | 0.0 | 4.0 | 0.00 | 0.15 | 0.11 | 70 | 1001.3 |
| 20260904223033 | 58 | 331 | 1.0 | 3.0 | 0.00 | 0.15 | 0.11 | 73 | 1001.4 |
| 20260904221530 | 58 | 269 | 0.0 | 1.0 | 0.00 | 0.15 | 0.11 | 73 | 1001.6 |
| 20260904220028 | 58 | 149 | 0.0 | 1.0 | 0.00 | 0.15 | 0.11 | 75 | 1001.6 |
| 20260904214539 | 57 | 255 | 0.0 | 1.0 | 0.00 | 0.15 | 0.11 | 77 | 1001.5 |
| 20260904213032 | 57 | 172 | 0.0 | 1.0 | 0.00 | 0.15 | 0.11 | 78 | 1001.5 |
| 20260904211525 | 56 | 53 | 0.0 | 1.0 | 0.00 | 0.15 | 0.11 | 82 | 1001.4 |
| 20260904210027 | 56 | 124 | 0.0 | 1.0 | 0.00 | 0.15 | 0.11 | 80 | 1001.3 |
| 20260904204522 | 53 | 118 | 0.0 | 0.0 | 0.00 | 0.15 | 0.11 | 66 | 1001.3 |
| 20260904203012 | 53 | 164 | 0.0 | 0.0 | 0.00 | 0.15 | 0.11 | 66 | 1001.2 |
| 20260904201510 | 52 | 166 | 0.0 | 0.0 | 0.00 | 0.15 | 0.11 | 67 | 1001.1 |
| 20260904200009 | 52 | 256 | 0.0 | 0.0 | 0.00 | 0.15 | 0.11 | 67 | 1001.1 |
| 20260904194508 | 53 | 259 | 0.0 | 1.0 | 0.00 | 0.15 | 0.11 | 67 | 1001.1 |
| 20260904193007 | 53 | 225 | 0.0 | 1.0 | 0.00 | 0.15 | 0.11 | 68 | 1001.1 |
| 20260904191503 | 52 | 153 | 0.0 | 0.0 | 0.01 | 0.15 | 0.11 | 69 | 1001.1 |
| 20260904190059 | 51 | 136 | 0.0 | 0.0 | 0.02 | 0.15 | 0.11 | 69 | 1001.1 |
| 20260904184601 | 51 | 143 | 0.0 | 0.0 | 0.02 | 0.15 | 0.11 | 69 | 1001.1 |
| 20260904183058 | 50 | 143 | 0.0 | 0.0 | 0.02 | 0.15 | 0.11 | 69 | 1001.1 |
| 20260904181557 | 50 | 150 | 0.0 | 0.0 | 0.01 | 0.14 | 0.10 | 69 | 1001.0 |
| 20260904180058 | 50 | 153 | 0.0 | 0.0 | 0.00 | 0.13 | 0.09 | 69 | 1000.8 |
| 20260904174553 | 51 | 149 | 0.0 | 0.0 | 0.00 | 0.13 | 0.09 | 69 | 1000.6 |
| 20260904173111 | 51 | 266 | 0.0 | 0.0 | 0.00 | 0.13 | 0.09 | 69 | 1000.5 |
| 20260904171604 | 50 | 267 | 0.0 | 0.0 | 0.00 | 0.13 | 0.09 | 69 | 1000.3 |
| 20260904170047 | 50 | 266 | 0.0 | 0.0 | 0.00 | 0.13 | 0.09 | 69 | 1000.1 |
| 20260904164553 | 50 | 146 | 0.0 | 0.0 | 0.01 | 0.13 | 0.09 | 70 | 1000.1 |
| 20260904163045 | 49 | 149 | 0.0 | 0.0 | 0.01 | 0.13 | 0.09 | 70 | 999.9 |
| 20260904161544 | 49 | 152 | 0.0 | 0.0 | 0.01 | 0.13 | 0.09 | 70 | 999.8 |
| 20260904160040 | 49 | 159 | 0.0 | 0.0 | 0.01 | 0.13 | 0.09 | 70 | 999.8 |
| 20260904154541 | 49 | 50 | 0.0 | 0.0 | 0.00 | 0.12 | 0.08 | 70 | 999.7 |
| 20260904153040 | 48 | 50 | 0.0 | 0.0 | 0.00 | 0.12 | 0.08 | 70 | 999.7 |
| 20260904151537 | 48 | 50 | 0.0 | 0.0 | 0.00 | 0.12 | 0.08 | 70 | 999.3 |
| 20260904150058 | 48 | 50 | 0.0 | 0.0 | 0.00 | 0.12 | 0.08 | 70 | 999.1 |
| 20260904144534 | 48 | 50 | 0.0 | 0.0 | 0.00 | 0.12 | 0.08 | 70 | 998.9 |
| 20260904143034 | 47 | 50 | 0.0 | 0.0 | 0.00 | 0.12 | 0.08 | 70 | 998.9 |
| 20260904141532 | 47 | 50 | 0.0 | 0.0 | 0.00 | 0.12 | 0.08 | 70 | 998.6 |
| 20260904140029 | 47 | 50 | 0.0 | 0.0 | 0.00 | 0.12 | 0.08 | 70 | 998.5 |
| 20260904134542 | 47 | 50 | 0.0 | 0.0 | 0.00 | 0.13 | 0.08 | 70 | 998.3 |
| 20260904133025 | 47 | 50 | 0.0 | 0.0 | 0.00 | 0.13 | 0.08 | 70 | 998.2 |
| 20260904131523 | 47 | 50 | 0.0 | 0.0 | 0.00 | 0.13 | 0.08 | 69 | 997.9 |
| 20260904130031 | 47 | 50 | 0.0 | 0.0 | 0.00 | 0.13 | 0.08 | 69 | 997.7 |
| 20260904124519 | 47 | 50 | 0.0 | 0.0 | 0.00 | 0.15 | 0.08 | 69 | 997.5 |
| 20260904123016 | 47 | 50 | 0.0 | 0.0 | 0.00 | 0.15 | 0.08 | 69 | 997.4 |
| 20260904121514 | 47 | 50 | 0.0 | 0.0 | 0.00 | 0.15 | 0.08 | 69 | 997.2 |
| 20260904120015 | 47 | 50 | 0.0 | 0.0 | 0.00 | 0.15 | 0.08 | 69 | 996.9 |
| 20260904114521 | 47 | 50 | 0.0 | 0.0 | 0.00 | 0.18 | 0.08 | 69 | 996.7 |
| 20260904113010 | 47 | 50 | 0.0 | 0.0 | 0.00 | 0.18 | 0.08 | 69 | 996.7 |
| 20260904111512 | 47 | 51 | 0.0 | 0.0 | 0.00 | 0.18 | 0.08 | 69 | 996.6 |
| 20260904110007 | 47 | 79 | 0.0 | 0.0 | 0.00 | 0.18 | 0.08 | 68 | 996.6 |
| 20260904104605 | 47 | 81 | 0.0 | 0.0 | 0.00 | 0.21 | 0.08 | 68 | 996.4 |
| 20260904103003 | 47 | 81 | 0.0 | 0.0 | 0.00 | 0.21 | 0.08 | 68 | 996.4 |
| 20260904101600 | 47 | 80 | 0.0 | 0.0 | 0.00 | 0.21 | 0.08 | 68 | 996.1 |
| 20260904100059 | 47 | 89 | 0.0 | 0.0 | 0.00 | 0.21 | 0.08 | 68 | 995.9 |
| 20260904094603 | 47 | 72 | 0.0 | 0.0 | 0.00 | 0.22 | 0.08 | 68 | 995.1 |
| 20260904093106 | 47 | 32 | 0.0 | 0.0 | 0.00 | 0.22 | 0.08 | 68 | 995.3 |
| 20260904091557 | 47 | 30 | 0.0 | 0.0 | 0.00 | 0.22 | 0.08 | 68 | 995.4 |
| 20260904090054 | 47 | 30 | 0.0 | 0.0 | 0.00 | 0.22 | 0.08 | 68 | 995.4 |
| 20260904084555 | 47 | 9 | 0.0 | 0.0 | 0.00 | 0.23 | 0.08 | 68 | 995.7 |
| 20260904083053 | 48 | 9 | 0.0 | 0.0 | 0.01 | 0.23 | 0.08 | 68 | 995.4 |
| 20260904081550 | 48 | 27 | 0.0 | 0.0 | 0.03 | 0.23 | 0.08 | 68 | 995.7 |
| 20260904080049 | 48 | 15 | 0.0 | 0.0 | 0.07 | 0.23 | 0.08 | 69 | 995.6 |
| 20260904074546 | 49 | 32 | 0.0 | 0.0 | 0.09 | 0.23 | 0.08 | 69 | 996.0 |
| 20260904073048 | 49 | 44 | 0.0 | 0.0 | 0.09 | 0.22 | 0.07 | 71 | 995.7 |
| 20260904071541 | 50 | 19 | 0.0 | 0.0 | 0.06 | 0.19 | 0.04 | 73 | 996.0 |
| 20260904070038 | 50 | 18 | 0.0 | 0.0 | 0.04 | 0.16 | 0.01 | 74 | 996.0 |
| 20260904064538 | 50 | 18 | 0.0 | 0.0 | 0.03 | 0.18 | 0.14 | 75 | 995.9 |
| 20260904063038 | 50 | 18 | 0.0 | 0.0 | 0.02 | 0.17 | 0.13 | 78 | 995.7 |
| 20260904061541 | 50 | 18 | 0.0 | 0.0 | 0.02 | 0.17 | 0.13 | 81 | 995.6 |
| 20260904060035 | 50 | 18 | 0.0 | 0.0 | 0.01 | 0.16 | 0.12 | 83 | 995.5 |
| 20260904054534 | 53 | 43 | 0.0 | 2.0 | 0.00 | 0.19 | 0.11 | 78 | 995.4 |
| 20260904053034 | 55 | 28 | 0.0 | 3.0 | 0.00 | 0.19 | 0.11 | 66 | 995.2 |
| 20260904051534 | 55 | 74 | 1.0 | 6.0 | 0.00 | 0.19 | 0.11 | 59 | 995.2 |
| 20260904050033 | 53 | 255 | 0.0 | 0.0 | 0.00 | 0.19 | 0.11 | 78 | 995.2 |
| 20260904044533 | 52 | 51 | 0.0 | 0.0 | 0.00 | 0.27 | 0.11 | 83 | 995.2 |
| 20260904043033 | 51 | 51 | 0.0 | 0.0 | 0.00 | 0.27 | 0.11 | 83 | 995.0 |
| 20260904041531 | 52 | 51 | 0.0 | 0.0 | 0.00 | 0.27 | 0.11 | 83 | 995.1 |
| 20260904040030 | 51 | 51 | 0.0 | 0.0 | 0.00 | 0.27 | 0.11 | 83 | 995.3 |
| 20260904034537 | 51 | 51 | 0.0 | 0.0 | 0.00 | 0.27 | 0.11 | 83 | 995.2 |
| 20260904033028 | 51 | 51 | 0.0 | 0.0 | 0.00 | 0.27 | 0.11 | 83 | 995.3 |
| 20260904031529 | 51 | 51 | 0.0 | 0.0 | 0.00 | 0.27 | 0.11 | 82 | 995.2 |
| 20260904030028 | 51 | 51 | 0.0 | 0.0 | 0.00 | 0.27 | 0.11 | 81 | 995.2 |
| 20260904024528 | 51 | 51 | 0.0 | 0.0 | 0.00 | 0.27 | 0.11 | 80 | 995.1 |
| 20260904023027 | 52 | 51 | 0.0 | 0.0 | 0.00 | 0.27 | 0.11 | 78 | 995.1 |
| 20260904021528 | 53 | 53 | 0.0 | 1.0 | 0.00 | 0.27 | 0.11 | 79 | 995.2 |
| 20260904020027 | 54 | 139 | 0.0 | 0.0 | 0.00 | 0.27 | 0.11 | 72 | 995.3 |
| 20260904014526 | 55 | 164 | 0.0 | 0.0 | 0.00 | 0.27 | 0.11 | 73 | 995.4 |
| 20260904013025 | 57 | 163 | 0.0 | 0.0 | 0.00 | 0.27 | 0.11 | 66 | 995.3 |
| 20260904011526 | 58 | 164 | 0.0 | 0.0 | 0.00 | 0.27 | 0.11 | 63 | 995.5 |
| 20260904010034 | 59 | 163 | 0.0 | 0.0 | 0.00 | 0.27 | 0.11 | 64 | 995.6 |
| 20260904004524 | 60 | 164 | 0.0 | 0.0 | 0.00 | 0.27 | 0.11 | 58 | 995.7 |
| 20260904003025 | 61 | 164 | 0.0 | 1.0 | 0.00 | 0.27 | 0.11 | 53 | 995.8 |
| 20260904001522 | 62 | 271 | 0.0 | 2.0 | 0.00 | 0.27 | 0.11 | 50 | 995.9 |
| 20260904000022 | 62 | 256 | 0.0 | 3.0 | 0.00 | 0.27 | 0.11 | 48 | 996.0 |
| 20260903234521 | 63 | 246 | 0.0 | 4.0 | 0.00 | 0.27 | 0.11 | 52 | 995.9 |
| 20260903233020 | 63 | 129 | 0.0 | 1.0 | 0.00 | 0.27 | 0.11 | 52 | 995.9 |
| 20260903231530 | 63 | 236 | 0.0 | 0.0 | 0.00 | 0.27 | 0.11 | 50 | 996.1 |
| 20260903230024 | 61 | 256 | 1.0 | 2.0 | 0.00 | 0.27 | 0.11 | 53 | 996.4 |